[[{"header":{"parameterUnit":"m.s-1","parameterCategory":1,"la1":30.2991,"la2":30.254,"lo1":-89.0895,"lo2":-89.0444,"dy":0.0017,"dx":0.0017,"nx":28,"ny":28,"refTime":"2025-07-07T09:00:00:Z","depth":0,"parameterNumber":2,"parameterNumberName":"U-component_of_WINDS"},"data":[0,0,0,0,0,0,0,0,0,0,0,0,0,0,0,0,0,0,0,0,0,0,0,0,0,0,0,0,0,0,0,0,0,0,0,0,0,0,0,0,0,0,0,0,0,0,0,0,0,0,0,0,0,0,0,0,0,0,1.9065,1.9068,0,1.9312,1.9315,1.9318,1.9412,1.9411,1.941,1.941,1.9663,1.9671,1.9678,0,0,0,0,0,0,0,0,0,0,0,0,0,1.8676,1.8682,1.9065,1.9068,1.9071,1.9312,1.9315,1.9318,1.9412,1.9411,1.941,1.9409,1.9661,1.967,1.9679,0,0,0,0,0,0,0,0,0,0,0,0,0,1.8876,1.8684,1.9065,1.9147,1.9157,1.9311,1.9315,1.9319,1.9412,1.9411,1.941,1.9409,1.9658,1.9669,1.968,1.9771,0,0,1.9714,1.9719,0,0,0,0,0,0,0,0,1.8864,1.889,1.9132,1.9141,1.9153,1.933,1.9271,1.9471,1.9412,1.9315,1.9409,1.9408,1.9553,1.9573,1.9622,1.9783,1.9793,1.9715,1.9722,1.9726,1.973,0,0,0,0,0,0,0,1.885,1.888,1.9163,1.9135,1.9148,1.9172,1.9199,1.9309,1.9437,1.9323,1.9331,1.9359,1.9559,1.9611,1.9628,1.9797,1.9715,1.9724,1.9731,1.9736,2.0045,2.0047,0,0,0,0,0,0,1.8823,1.8868,1.9155,1.917,1.9003,1.918,1.921,1.9274,1.9436,1.946,1.9359,1.9362,1.9592,1.9615,1.9638,1.9755,1.9726,1.9737,1.9743,2.0044,2.0045,2.0047,0,0,0,0,0,0,1.8814,1.8847,1.9145,1.9021,1.9061,1.9187,1.9259,1.928,1.9332,1.9464,1.9487,1.9389,1.9592,1.9622,1.9737,1.9765,1.9742,1.9752,2.0042,2.0044,2.0046,1.9989,0,0,0,0,0,0,1.8802,1.8844,1.8879,1.9021,1.9067,1.9239,1.9261,1.9285,1.935,1.9356,1.9497,1.952,1.9594,1.972,1.9748,1.978,1.9761,2.004,2.0043,2.0046,1.9989,1.9989,1.9989,0,0,0,0,0,1.8788,1.8853,1.888,1.8915,1.9114,1.9241,1.9267,1.9351,1.9352,1.9389,1.9474,1.9515,1.9757,1.9731,1.9763,1.9799,2.0038,2.0042,2.0045,1.9989,1.9989,1.9989,0,0,0,0,0,0,1.8712,1.8874,1.8905,1.9019,1.9115,1.9256,1.9306,1.9348,1.9447,1.9448,1.9548,1.9579,1.9686,1.9754,1.9722,1.9895,1.9901,1.9911,1.9847,1.9848,1.9848,1.9829,1.977,0,0,0,0,0,1.8708,1.8797,1.8934,1.9021,1.9068,1.9178,1.9236,1.9292,1.9397,1.9438,1.9531,1.9631,1.973,1.9793,1.9891,1.9999,2.0032,2.004,2.004,2.0039,2.0047,2.0109,2.0115,2.0058,2.0058,2.0058,0,0,1.8701,1.8801,1.8851,1.9008,1.9089,1.918,1.9212,1.9306,1.9374,1.9453,1.9567,1.9638,1.9757,1.9868,1.9922,1.9929,2.007,2.0044,2.0042,2.0051,2.0113,2.0119,2.0123,2.0061,2.006,2.006,0,0,1.8735,1.8819,1.8901,1.8982,1.9105,1.9178,1.9197,1.9332,1.9383,1.9499,1.956,1.9642,1.981,1.9892,1.9955,2.002,2.0061,2.0049,2.0049,2.0109,2.0113,2.0118,2.014,2.0147,2.0056,2.0056,2.0056,0,1.8711,1.8849,1.8937,1.9028,1.9096,1.9171,1.9254,1.9328,1.9477,1.9522,1.9526,1.9739,1.9823,1.9955,1.9971,2.002,2.0045,2.0033,2.0105,2.0111,2.0116,2.0139,2.0147,2.0054,2.0054,2.0054,2.0054,0,1.8814,1.8909,1.896,1.9101,1.9174,1.9261,1.9362,1.9425,1.9475,1.9547,1.9665,1.9769,1.9889,1.9925,1.9975,2.0064,2.0064,2.0086,2.0093,2.0118,2.0141,2.015,2.005,2.0051,2.0052,2.0052,0,0,1.8806,1.8995,1.9012,1.9077,1.9218,1.9294,1.9384,1.9501,1.9553,1.9654,1.9732,1.9872,1.9893,1.9965,2.0024,2.0076,2.0121,2.0092,2.0097,2.0093,2.0226,2.0208,2.0216,2.0149,2.0151,2.0153,2.0215,0,1.8858,1.9022,1.9104,1.9233,1.9322,1.9394,1.9473,1.9568,1.9638,1.9724,1.9802,1.99,1.992,1.9964,2.0019,2.0103,2.0148,2.01,2.0223,2.0226,2.019,2.0229,2.0211,2.0265,2.0225,2.0227,2.0228,0,1.8941,1.904,1.9177,1.9308,1.9349,1.9418,1.9532,1.9613,1.9722,1.977,1.985,1.9908,2.0006,2.0006,2.0142,2.0108,2.0163,2.0212,2.0216,2.023,2.0228,2.0244,2.0284,2.0292,2.0243,2.0242,2.0241,0,1.8921,1.9089,1.9193,1.9246,1.9401,1.9448,1.9515,1.9624,1.9689,1.9789,1.9832,1.9942,2.0003,2.0087,2.0173,2.0165,2.0301,2.0308,2.0343,2.0341,2.0368,2.0365,2.0417,2.0404,2.0403,2.0403,2.0403,0,1.897,1.9051,1.9186,1.925,1.9343,1.9436,1.9526,1.9598,1.9694,1.9773,1.9843,1.9916,2.0026,2.0113,2.0181,2.0283,2.031,2.0351,2.0368,2.0345,2.034,2.0382,2.0381,2.0406,2.0405,2.0405,2.0404,0,1.8963,1.9057,1.9175,1.9312,1.9348,1.9411,1.9529,1.9593,1.9667,1.9767,1.9795,1.9911,2.0017,2.0112,2.0252,2.0298,2.0402,2.0424,2.0365,2.0374,2.0403,2.0399,2.0484,2.05,2.0476,2.0476,2.0476,0,1.8989,1.9053,1.9197,1.9255,1.932,1.9413,1.948,1.9574,1.9641,1.9771,1.982,1.9931,2.0025,2.019,2.0287,2.0395,2.042,2.0442,2.0436,2.041,2.042,2.0414,2.0421,2.0441,2.0441,2.0441,2.0441,0,1.9023,1.9066,1.916,1.927,1.9348,1.9439,1.9533,1.9576,1.9688,1.976,1.9869,1.9941,2.0085,2.0194,2.0312,2.0382,2.043,2.0442,2.0455,2.0432,2.0395,2.0415,2.0363,2.0439,2.0439,2.0439,2.044,2.044,1.9033,1.9093,1.9204,1.9306,1.9387,1.9472,1.954,1.9622,1.9714,1.9838,1.9888,1.9999,2.0107,2.0271,2.034,2.0429,2.0438,2.0457,2.0462,2.0466,2.0461,2.0381,2.0451,2.0451,2.0451,2.0451,2.0451,0,1.9071,1.9146,1.9239,1.9367,1.9448,1.9486,1.9591,1.9656,1.9752,1.9849,1.994,2.0065,2.0171,2.0276,2.0388,2.0438,2.0463,2.0465,2.0462,2.0477,2.0447,2.0424,2.0443,2.0442,2.0442,2.0442,2.0442,2.0442,1.91,1.9204,1.926,1.9404,1.9479,1.9588,1.9645,1.9724,1.9802,1.9938,2.0027,2.0094,2.0195,2.0315,2.0414,2.0442,2.048,2.0475,2.0509,2.0479,2.0479,2.0479,2.0457,2.0483,2.0483,2.0532,2.0532,2.0533]},{"header":{"parameterUnit":"m.s-1","parameterCategory":1,"la1":30.2991,"la2":30.254,"lo1":-89.0895,"lo2":-89.0444,"dy":0.0017,"dx":0.0017,"nx":28,"ny":28,"refTime":"2025-07-07T09:00:00:Z","depth":0,"parameterNumber":3,"parameterNumberName":"V-component_of_WINDS"},"data":[0,0,0,0,0,0,0,0,0,0,0,0,0,0,0,0,0,0,0,0,0,0,0,0,0,0,0,0,0,0,0,0,0,0,0,0,0,0,0,0,0,0,0,0,0,0,0,0,0,0,0,0,0,0,0,0,0,0,4.814,4.814,0,4.8138,4.8138,4.8138,4.8078,4.8077,4.8075,4.8074,4.8071,4.8073,4.8074,0,0,0,0,0,0,0,0,0,0,0,0,0,4.8091,4.8092,4.814,4.814,4.814,4.8138,4.8138,4.8138,4.8078,4.8077,4.8075,4.8073,4.8071,4.8073,4.8074,0,0,0,0,0,0,0,0,0,0,0,0,0,4.8103,4.8093,4.814,4.811,4.8107,4.8138,4.8138,4.8138,4.8079,4.8077,4.8074,4.8072,4.807,4.8072,4.8074,4.8133,0,0,4.8081,4.8082,0,0,0,0,0,0,0,0,4.8103,4.8105,4.8114,4.8112,4.8109,4.8106,4.812,4.8136,4.8079,4.809,4.8074,4.8071,4.8085,4.8085,4.809,4.8133,4.8133,4.8081,4.8082,4.8083,4.8084,0,0,0,0,0,0,0,4.8102,4.8105,4.8139,4.8114,4.8111,4.8096,4.8095,4.8123,4.81,4.8089,4.8084,4.8085,4.8083,4.8088,4.809,4.8133,4.8081,4.8083,4.8084,4.8085,4.8224,4.8227,0,0,0,0,0,0,4.8105,4.8104,4.8139,4.8139,4.81,4.8099,4.8098,4.8109,4.81,4.8096,4.8087,4.8082,4.8086,4.8087,4.8089,4.8158,4.8083,4.8085,4.8086,4.8222,4.8225,4.8228,0,0,0,0,0,0,4.8104,4.8109,4.8139,4.812,4.8123,4.8102,4.8115,4.811,4.8116,4.8098,4.8094,4.8097,4.8084,4.8086,4.8123,4.8157,4.8086,4.8088,4.8219,4.8223,4.8226,4.8295,0,0,0,0,0,0,4.8103,4.8109,4.8131,4.8121,4.8124,4.8173,4.8117,4.8112,4.812,4.8113,4.8106,4.8103,4.8083,4.812,4.8125,4.8158,4.8089,4.8216,4.8221,4.8225,4.8289,4.83,4.831,0,0,0,0,0,4.8102,4.8151,4.8133,4.8137,4.8152,4.8175,4.8177,4.8152,4.8123,4.8145,4.8133,4.8103,4.8152,4.8124,4.8129,4.8164,4.8214,4.8219,4.8225,4.8285,4.8298,4.831,0,0,0,0,0,0,4.8165,4.8149,4.8129,4.8176,4.8177,4.8165,4.8192,4.8167,4.8177,4.8171,4.814,4.8139,4.818,4.8175,4.8145,4.822,4.8178,4.8184,4.8222,4.8234,4.8244,4.8244,4.8091,0,0,0,0,0,4.8184,4.8204,4.8189,4.8232,4.8234,4.8213,4.8222,4.8203,4.8203,4.8204,4.8195,4.8196,4.8212,4.8223,4.8236,4.8288,4.8286,4.8315,4.8325,4.8333,4.8339,4.8367,4.8379,4.8246,4.8246,4.8246,0,0,4.8224,4.8218,4.8233,4.8245,4.8244,4.8265,4.8214,4.8239,4.8254,4.8207,4.8241,4.8235,4.8234,4.8279,4.8298,4.8276,4.8376,4.834,4.8347,4.8349,4.8374,4.8386,4.8398,4.825,4.8249,4.8248,0,0,4.8309,4.8306,4.8342,4.8342,4.8341,4.8326,4.8335,4.8326,4.8321,4.8354,4.8319,4.8337,4.8365,4.8366,4.837,4.8455,4.8427,4.846,4.8513,4.854,4.855,4.8559,4.859,4.8601,4.8466,4.8466,4.8466,0,4.8359,4.839,4.8363,4.839,4.8397,4.8355,4.8391,4.8392,4.8395,4.8401,4.8376,4.841,4.8406,4.8451,4.8471,4.8476,4.8485,4.846,4.8551,4.856,4.8568,4.8596,4.8608,4.847,4.847,4.8469,4.8469,0,4.8452,4.8474,4.8503,4.8507,4.8516,4.8548,4.8526,4.8538,4.8519,4.8507,4.8542,4.8536,4.8548,4.8557,4.8538,4.8598,4.8585,4.8556,4.8513,4.8585,4.8611,4.8622,4.8476,4.8474,4.8473,4.8472,0,0,4.8576,4.8565,4.8576,4.8577,4.8573,4.859,4.8619,4.863,4.8642,4.8646,4.8669,4.8694,4.8667,4.8672,4.8653,4.8676,4.8744,4.8645,4.8644,4.8663,4.881,4.8832,4.8845,4.8726,4.8728,4.8729,4.881,0,4.8657,4.8707,4.8683,4.8736,4.8756,4.8717,4.8742,4.8742,4.8732,4.8748,4.8736,4.8754,4.8718,4.872,4.8742,4.8731,4.8773,4.8725,4.8747,4.8749,4.8749,4.8859,4.8882,4.8958,4.8821,4.8822,4.8823,0,4.8759,4.8767,4.8821,4.8813,4.8821,4.8844,4.8853,4.8868,4.8867,4.8858,4.8864,4.8839,4.8867,4.8824,4.8863,4.8831,4.8838,4.8834,4.8837,4.8838,4.879,4.8863,4.8982,4.8994,4.8839,4.8838,4.8837,0,4.8844,4.8868,4.8904,4.8906,4.8898,4.8915,4.8913,4.891,4.8918,4.8926,4.8931,4.8941,4.8947,4.8956,4.8935,4.8905,4.8976,4.8931,4.8969,4.897,4.8986,4.8985,4.9108,4.8991,4.8991,4.8991,4.8991,0,4.8937,4.8972,4.8942,4.8964,4.9002,4.8974,4.9013,4.9006,4.9003,4.9023,4.899,4.9009,4.898,4.8996,4.898,4.9014,4.9017,4.9011,4.9006,4.9014,4.9015,4.9018,4.9012,4.8994,4.8993,4.8993,4.8992,0,4.9038,4.902,4.9056,4.9045,4.9043,4.9072,4.9062,4.9082,4.907,4.9095,4.91,4.908,4.9098,4.9077,4.9093,4.9082,4.9129,4.9116,4.9129,4.9125,4.9165,4.9161,4.9295,4.9311,4.9183,4.9185,4.9186,0,4.9099,4.9125,4.9117,4.9128,4.9127,4.9145,4.9154,4.9128,4.9138,4.9139,4.9159,4.9174,4.9184,4.9214,4.9201,4.9213,4.9201,4.9247,4.9202,4.9209,4.9201,4.92,4.9203,4.9256,4.9257,4.9258,4.9259,0,4.9209,4.9199,4.9212,4.9222,4.9233,4.924,4.9244,4.9255,4.9228,4.9241,4.9259,4.9267,4.9283,4.9298,4.9307,4.9304,4.9278,4.9274,4.9283,4.9291,4.9298,4.9295,4.9154,4.9271,4.9269,4.9269,4.9268,4.9268,4.9292,4.9313,4.9311,4.9327,4.9327,4.9332,4.935,4.934,4.9354,4.9365,4.9349,4.9371,4.937,4.9378,4.9379,4.9395,4.9376,4.9389,4.9393,4.9397,4.9403,4.9295,4.9397,4.9396,4.9396,4.9396,4.9396,0,4.94,4.9397,4.9412,4.9419,4.9431,4.9405,4.9409,4.9421,4.9441,4.9442,4.9453,4.9473,4.9487,4.9476,4.9488,4.9504,4.9492,4.9508,4.9506,4.9506,4.9419,4.941,4.9517,4.9517,4.9517,4.9517,4.9517,4.9517,4.9458,4.9492,4.9482,4.9516,4.9512,4.9533,4.9538,4.9542,4.9542,4.9566,4.9578,4.9571,4.9567,4.9578,4.959,4.9587,4.9593,4.9613,4.9605,4.9524,4.9512,4.9501,4.9492,4.9614,4.9615,4.969,4.9691,4.9691]}]]